Satellite: NOAA-11
Catalog number: 19531
Epoch time:      06221.82503052
Element set:    0229
Inclination:      098.8273 deg
RA of node:       309.6632 deg
Eccentricity:    0.0011476
Arg of perigee:   193.1052 deg
Mean anomaly:     166.9832 deg
Mean motion:   14.14812982 rev/day
Decay rate:      -2.52e-06 rev/day^2
Epoch rev:           92212
Checksum:              287

Satellite: NOAA-12
Catalog number: 21263
Epoch time:      06221.66119031
Element set:    0721
Inclination:      098.7327 deg
RA of node:       214.7261 deg
Eccentricity:    0.0012064
Arg of perigee:   295.7351 deg
Mean anomaly:     064.2579 deg
Mean motion:   14.25500338 rev/day
Decay rate:       1.41e-06 rev/day^2
Epoch rev:           79186
Checksum:              280

Satellite: MET-3/5
Catalog number: 21655
Epoch time:      06221.92458141
Element set:    0223
Inclination:      082.5516 deg
RA of node:       222.8219 deg
Eccentricity:    0.0011970
Arg of perigee:   268.7182 deg
Mean anomaly:     091.2566 deg
Mean motion:   13.17006677 rev/day
Decay rate:        5.1e-07 rev/day^2
Epoch rev:           72043
Checksum:              284

Satellite: MET-2/21
Catalog number: 22782
Epoch time:      06221.69042378
Element set:    0583
Inclination:      082.5478 deg
RA of node:       289.0107 deg
Eccentricity:    0.0023182
Arg of perigee:   033.6550 deg
Mean anomaly:     326.6068 deg
Mean motion:   13.83608152 rev/day
Decay rate:        4.0e-08 rev/day^2
Epoch rev:           65344
Checksum:              297

Satellite: OKEAN-4
Catalog number: 23317
Epoch time:      06222.69155442
Element set:      20
Inclination:      082.5356 deg
RA of node:       226.1595 deg
Eccentricity:    0.0021739
Arg of perigee:   191.2746 deg
Mean anomaly:     168.7985 deg
Mean motion:   14.82383692 rev/day
Decay rate:       1.42e-06 rev/day^2
Epoch rev:           63805
Checksum:              310

Satellite: NOAA-14
Catalog number: 23455
Epoch time:      06221.80675746
Element set:    0222
Inclination:      099.0346 deg
RA of node:       280.6416 deg
Eccentricity:    0.0008561
Arg of perigee:   258.7953 deg
Mean anomaly:     101.2266 deg
Mean motion:   14.13673608 rev/day
Decay rate:       -9.7e-07 rev/day^2
Epoch rev:           59864
Checksum:              318

Satellite: SICH-1
Catalog number: 23657
Epoch time:      06222.72268081
Element set:     823
Inclination:      082.5300 deg
RA of node:       007.0318 deg
Eccentricity:    0.0023739
Arg of perigee:   179.9750 deg
Mean anomaly:     180.1449 deg
Mean motion:   14.81378396 rev/day
Decay rate:       2.03e-06 rev/day^2
Epoch rev:           59006
Checksum:              294

Satellite: NOAA-15
Catalog number: 25338
Epoch time:      06221.68367441
Element set:    0613
Inclination:      098.5164 deg
RA of node:       222.3886 deg
Eccentricity:    0.0009909
Arg of perigee:   214.3467 deg
Mean anomaly:     145.7071 deg
Mean motion:   14.24597149 rev/day
Decay rate:        9.8e-07 rev/day^2
Epoch rev:           42833
Checksum:              324

Satellite: RESURS
Catalog number: 25394
Epoch time:      06222.80574046
Element set:     432
Inclination:      098.4906 deg
RA of node:       283.8446 deg
Eccentricity:    0.0002209
Arg of perigee:   035.8387 deg
Mean anomaly:     324.2940 deg
Mean motion:   14.24108252 rev/day
Decay rate:       -2.0e-07 rev/day^2
Epoch rev:           42017
Checksum:              276

Satellite: FENGYUN1
Catalog number: 25730
Epoch time:      06221.55827684
Element set:     795
Inclination:      098.6275 deg
RA of node:       212.0923 deg
Eccentricity:    0.0014731
Arg of perigee:   352.7201 deg
Mean anomaly:     007.3753 deg
Mean motion:   14.11812742 rev/day
Decay rate:      -2.05e-06 rev/day^2
Epoch rev:           37354
Checksum:              282

Satellite: OKEAN-0
Catalog number: 25860
Epoch time:      06222.60898546
Element set:     821
Inclination:      097.7329 deg
RA of node:       234.4050 deg
Eccentricity:    0.0000813
Arg of perigee:   042.4965 deg
Mean anomaly:     317.6304 deg
Mean motion:   14.73380560 rev/day
Decay rate:        4.7e-07 rev/day^2
Epoch rev:           37976
Checksum:              302

Satellite: NOAA-16
Catalog number: 26536
Epoch time:      06221.77361682
Element set:    0989
Inclination:      099.0701 deg
RA of node:       189.0334 deg
Eccentricity:    0.0010434
Arg of perigee:   334.4838 deg
Mean anomaly:     025.5822 deg
Mean motion:   14.12358702 rev/day
Decay rate:      -1.36e-06 rev/day^2
Epoch rev:           30314
Checksum:              294

Satellite: NOAA-17
Catalog number: 27453
Epoch time:      06221.79080572
Element set:    0007
Inclination:      098.6184 deg
RA of node:       292.9553 deg
Eccentricity:    0.0010885
Arg of perigee:   280.7856 deg
Mean anomaly:     079.2085 deg
Mean motion:   14.23799638 rev/day
Decay rate:        8.0e-07 rev/day^2
Epoch rev:           21440
Checksum:              327

